Carbondale, IL

12:51 AM CDT on September 22, 2017 (GMT -0500)
Southern Illinois

Weather History for KMDH - January, 2014

Change the Weather History Date:

Wednesday, January 1, 2014

  Actual Average Record
Temperature  
Mean Temperature 38 °F -  
Max Temperature 45 °F 37 °F 70 °F (1952)
Min Temperature 30 °F 22 °F -6 °F (1977)
Degree Days  
Heating Degree Days 28    
Moisture  
Dew Point 29 °F    
Average Humidity 71    
Maximum Humidity 89    
Minimum Humidity 55    
Precipitation  
Precipitation 0.03 in - - ()
Sea Level Pressure  
Sea Level Pressure 30.13 in    
Wind  
Wind Speed 9 mph (South)    
Max Wind Speed 15 mph    
Max Gust Speed -    
Visibility 10 miles    
Events Rain    
Averages and records for this station are not official NWS values.
T = Trace of Precipitation, MM = Missing Value Source: NWS Daily Summary

Daily Weather History Graph

Daily Weather History Graph

Search for Another Location

Airport or City:

Trip Planner

Search our weather history database for the weather conditions in past years. The results will help you decide how hot, cold, wet, or windy it might be!

Date:

Astronomy

Jan. 01, 2014 Rise Set
Actual Time 7:12 AM CST 4:48 PM CST
Civil Twilight 6:43 AM CST 5:18 PM CST
Nautical Twilight 6:10 AM CST 5:51 PM CST
Astronomical Twilight 5:38 AM CST 6:22 PM CST
Moon 7:03 AM CST (1/1) 5:32 PM CST (1/1)
Length of Visible Light 10h 35m
Length of Day
9h 36m
New Moon, 0% of the Moon is Illuminated
Jan 1
New Moon
Jan 7
First Quarter
Jan 15
Full
Jan 23
Last Quarter
Jan 30
New

Hourly Weather History & Observations

Time (CST) Temp. Windchill Dew Point Humidity Pressure Visibility Wind Dir Wind Speed Gust Speed Precip Events Conditions
12:52 AM 32.0 °F 25.6 °F 26.1 °F 79% 30.27 in 10.0 mi South 6.9 mph - N/A   Clear
1:52 AM 34.0 °F 25.5 °F 27.0 °F 75% 30.25 in 10.0 mi South 11.5 mph - N/A   Clear
2:52 AM 33.1 °F 24.4 °F 27.0 °F 78% 30.23 in 10.0 mi South 11.5 mph - N/A   Clear
3:52 AM 34.0 °F 26.0 °F 27.0 °F 75% 30.22 in 10.0 mi SSW 10.4 mph - N/A   Clear
4:52 AM 33.1 °F 24.4 °F 27.0 °F 78% 30.21 in 10.0 mi South 11.5 mph - N/A   Clear
5:52 AM 30.9 °F 23.5 °F 25.0 °F 79% 30.21 in 10.0 mi South 8.1 mph - N/A   Clear
6:52 AM 30.9 °F 22.8 °F 25.0 °F 79% 30.21 in 10.0 mi South 9.2 mph - N/A   Clear
7:52 AM 33.1 °F 26.1 °F 26.1 °F 75% 30.22 in 10.0 mi South 8.1 mph - N/A   Clear
8:52 AM 36.0 °F 28.0 °F 28.0 °F 73% 30.22 in 10.0 mi SSW 11.5 mph - N/A   Clear
9:52 AM 39.9 °F 32.5 °F 28.0 °F 63% 30.22 in 10.0 mi SSW 12.7 mph - N/A   Clear
10:52 AM 44.1 °F 37.7 °F 28.9 °F 55% 30.19 in 10.0 mi SSW 12.7 mph - N/A   Clear
11:52 AM 43.0 °F 35.7 °F 28.9 °F 58% 30.15 in 10.0 mi SSW 15.0 mph - N/A   Clear
12:52 PM 44.1 °F 38.6 °F 30.0 °F 58% 30.12 in 10.0 mi South 10.4 mph - N/A   Clear
1:52 PM 44.1 °F 37.4 °F 30.0 °F 58% 30.09 in 10.0 mi South 13.8 mph - N/A   Clear
2:52 PM 45.0 °F 39.7 °F 30.0 °F 56% 30.07 in 10.0 mi South 10.4 mph - N/A   Clear
3:52 PM 44.1 °F 40.8 °F 30.0 °F 58% 30.06 in 10.0 mi South 5.8 mph - N/A   Clear
4:52 PM 42.1 °F 36.6 °F 30.0 °F 62% 30.05 in 10.0 mi SSE 9.2 mph - N/A   Clear
5:52 PM 39.9 °F 36.7 °F 30.9 °F 70% 30.05 in 10.0 mi ESE 4.6 mph - N/A   Overcast
6:52 PM 39.9 °F 35.1 °F 30.9 °F 70% 30.02 in 10.0 mi ESE 6.9 mph - N/A   Overcast
7:52 PM 39.0 °F 36.8 °F 30.9 °F 73% 30.01 in 10.0 mi East 3.5 mph - 0.00 in   Mostly Cloudy
8:52 PM 39.0 °F - 30.9 °F 73% 30.02 in 9.0 mi Calm Calm - 0.01 in Rain Light Rain
9:52 PM 37.0 °F 33.3 °F 34.0 °F 89% 30.01 in 10.0 mi NNW 4.6 mph - 0.02 in   Overcast
10:52 PM 37.0 °F 33.3 °F 33.1 °F 86% 29.98 in 10.0 mi NNE 4.6 mph - 0.00 in   Overcast
11:52 PM 37.0 °F 34.5 °F 34.0 °F 89% 29.99 in 10.0 mi WNW 3.5 mph - N/A   Overcast